Time,TemperatureF,DewpointF,PressureIn,WindDirection,WindDirectionDegrees,WindSpeedMPH,WindSpeedGustMPH,Humidity,HourlyPrecipIn,Conditions,Clouds,dailyrainin,SoftwareType,DateUTC
2013-01-11 00:01:00,27.0,21.0,30.04,West,270,1.0,2.0,74,0.00,,,0.00,Rainwise IP-100,2013-01-11 05:01:00,
2013-01-11 00:06:00,27.0,21.0,30.04,West,270,0.0,2.0,74,0.00,,,0.00,Rainwise IP-100,2013-01-11 05:06:00,
2013-01-11 00:11:00,27.0,21.0,30.04,West,270,0.0,2.0,74,0.00,,,0.00,Rainwise IP-100,2013-01-11 05:11:00,
2013-01-11 00:16:00,27.0,21.0,30.04,West,270,1.0,2.0,74,0.00,,,0.00,Rainwise IP-100,2013-01-11 05:16:00,
2013-01-11 00:21:00,27.0,21.0,30.04,West,270,1.0,2.0,74,0.00,,,0.00,Rainwise IP-100,2013-01-11 05:21:00,
2013-01-11 00:26:00,27.0,21.0,30.04,West,270,1.0,2.0,74,0.00,,,0.00,Rainwise IP-100,2013-01-11 05:26:00,
2013-01-11 01:43:00,24.0,21.0,30.05,North,360,7.0,7.0,82,0.00,,,0.00,Rainwise IP-100,2013-01-11 06:43:00,
2013-01-11 01:48:00,24.0,21.0,30.05,North,360,3.0,7.0,82,0.00,,,0.00,Rainwise IP-100,2013-01-11 06:48:00,
2013-01-11 01:53:00,24.0,21.0,30.05,North,360,3.0,6.0,82,0.00,,,0.00,Rainwise IP-100,2013-01-11 06:53:00,
2013-01-11 01:58:00,24.0,21.0,30.05,North,360,3.0,6.0,82,0.00,,,0.00,Rainwise IP-100,2013-01-11 06:58:00,
2013-01-11 02:03:00,25.0,21.0,30.05,West,270,10.0,10.0,79,0.00,,,0.00,Rainwise IP-100,2013-01-11 07:03:00,
2013-01-11 02:08:00,25.0,21.0,30.05,West,270,0.0,10.0,79,0.00,,,0.00,Rainwise IP-100,2013-01-11 07:08:00,
2013-01-11 02:13:00,25.0,21.0,30.05,West,270,0.0,0.0,79,0.00,,,0.00,Rainwise IP-100,2013-01-11 07:13:00,
2013-01-11 02:18:00,25.0,21.0,30.05,West,270,0.0,0.0,79,0.00,,,0.00,Rainwise IP-100,2013-01-11 07:18:00,
2013-01-11 02:23:00,25.0,21.0,30.05,West,270,0.0,0.0,79,0.00,,,0.00,Rainwise IP-100,2013-01-11 07:23:00,
2013-01-11 02:28:00,25.0,21.0,30.04,West,270,4.0,4.0,80,0.00,,,0.00,Rainwise IP-100,2013-01-11 07:28:00,
2013-01-11 02:33:00,25.0,21.0,30.04,NE,45,3.0,4.0,79,0.00,,,0.00,Rainwise IP-100,2013-01-11 07:33:00,
2013-01-11 02:38:00,25.0,21.0,30.04,West,270,3.0,6.0,80,0.00,,,0.00,Rainwise IP-100,2013-01-11 07:38:00,
2013-01-11 02:43:00,25.0,21.0,30.04,West,270,3.0,6.0,80,0.00,,,0.00,Rainwise IP-100,2013-01-11 07:43:00,
2013-01-11 02:48:00,24.0,21.0,30.04,ESE,112,1.0,7.0,81,0.00,,,0.00,Rainwise IP-100,2013-01-11 07:48:00,
2013-01-11 02:53:00,24.0,21.0,30.04,West,270,3.0,7.0,81,0.00,,,0.00,Rainwise IP-100,2013-01-11 07:53:00,
2013-01-11 02:58:00,24.0,21.0,30.04,West,270,3.0,5.0,81,0.00,,,0.00,Rainwise IP-100,2013-01-11 07:58:00,
2013-01-11 03:03:00,24.0,21.0,30.04,West,270,3.0,5.0,81,0.00,,,0.00,Rainwise IP-100,2013-01-11 08:03:00,
2013-01-11 03:08:00,24.0,21.0,30.04,West,270,3.0,5.0,81,0.00,,,0.00,Rainwise IP-100,2013-01-11 08:08:00,
2013-01-11 03:13:00,24.0,21.0,30.04,West,270,3.0,5.0,81,0.00,,,0.00,Rainwise IP-100,2013-01-11 08:13:00,
2013-01-11 03:18:00,24.0,21.0,30.04,West,270,3.0,5.0,81,0.00,,,0.00,Rainwise IP-100,2013-01-11 08:18:00,
2013-01-11 03:23:00,24.0,21.0,30.04,West,270,3.0,5.0,81,0.00,,,0.00,Rainwise IP-100,2013-01-11 08:23:00,
2013-01-11 03:28:00,25.0,21.0,30.03,West,270,4.0,5.0,79,0.00,,,0.00,Rainwise IP-100,2013-01-11 08:28:00,
2013-01-11 03:33:00,24.0,18.0,30.03,West,270,2.0,9.0,79,0.00,,,0.00,Rainwise IP-100,2013-01-11 08:33:00,
2013-01-11 03:38:00,24.0,18.0,30.03,West,270,2.0,4.0,79,0.00,,,0.00,Rainwise IP-100,2013-01-11 08:38:00,
2013-01-11 03:43:00,24.0,18.0,30.03,West,270,3.0,4.0,78,0.00,,,0.00,Rainwise IP-100,2013-01-11 08:43:00,
2013-01-11 03:48:00,24.0,18.0,30.03,West,270,0.0,3.0,78,0.00,,,0.00,Rainwise IP-100,2013-01-11 08:48:00,
2013-01-11 03:53:00,24.0,18.0,30.03,West,270,0.0,3.0,78,0.00,,,0.00,Rainwise IP-100,2013-01-11 08:53:00,
2013-01-11 03:54:00,24.0,18.0,30.03,West,270,0.0,3.0,78,0.00,,,0.00,Rainwise IP-100,2013-01-11 08:54:00,
2013-01-11 03:55:00,24.0,18.0,30.03,West,270,0.0,3.0,78,0.00,,,0.00,Rainwise IP-100,2013-01-11 08:55:00,
2013-01-11 03:58:00,24.0,18.0,30.03,West,270,1.0,2.0,78,0.00,,,0.00,Rainwise IP-100,2013-01-11 08:58:00,
2013-01-11 03:59:00,24.0,18.0,30.03,West,270,1.0,2.0,78,0.00,,,0.00,Rainwise IP-100,2013-01-11 08:59:00,
2013-01-11 04:02:00,24.0,18.0,30.03,West,270,1.0,3.0,78,0.00,,,0.00,Rainwise IP-100,2013-01-11 09:02:00,
2013-01-11 04:04:00,24.0,18.0,30.03,West,270,0.0,3.0,78,0.00,,,0.00,Rainwise IP-100,2013-01-11 09:04:00,
2013-01-11 04:05:00,24.0,18.0,30.03,West,270,1.0,3.0,78,0.00,,,0.00,Rainwise IP-100,2013-01-11 09:05:00,
2013-01-11 04:07:00,24.0,18.0,30.03,West,270,0.0,3.0,78,0.00,,,0.00,Rainwise IP-100,2013-01-11 09:07:00,
2013-01-11 04:12:00,24.0,18.0,30.03,West,270,2.0,3.0,78,0.00,,,0.00,Rainwise IP-100,2013-01-11 09:12:00,
2013-01-11 04:17:00,24.0,18.0,30.03,West,270,0.0,3.0,78,0.00,,,0.00,Rainwise IP-100,2013-01-11 09:17:00,
2013-01-11 04:22:00,24.0,18.0,30.03,West,270,1.0,3.0,78,0.00,,,0.00,Rainwise IP-100,2013-01-11 09:22:00,
2013-01-11 04:27:00,24.0,18.0,30.03,West,270,2.0,3.0,78,0.00,,,0.00,Rainwise IP-100,2013-01-11 09:27:00,
2013-01-11 04:32:00,24.0,18.0,30.03,West,270,2.0,3.0,78,0.00,,,0.00,Rainwise IP-100,2013-01-11 09:32:00,
2013-01-11 04:37:00,24.0,18.0,30.03,West,270,0.0,3.0,78,0.00,,,0.00,Rainwise IP-100,2013-01-11 09:37:00,